• Join FlightAware (Why Join?)
  • Login
  • US Flag 
12:00PM EST


 

Airport Tracker/Info


-or-


 

Live Flight TrackerFlight Track Log ✈ EJA812 ✈ 05-May-2012 ✈ KDAL - KOKC

Flight Track Log - Related Links

Times and Time Zones

All times are in EDT time to prevent confusion due to time zone crossing. See the EJA812 flight status page for this flight to view local times or setup timezone preferences in your user account.

Time Position Orientation Groundspeed Altitude Reporting Facility
EDT Latitude Longitude Course Direction KTS MPH feet Rate Location/Type
07:38PM 32.8386 -96.8306 133° Southeast 159 183 1,800  Level FAA TRACON SMA TRACON (SMA)
07:38PM 32.8128 -96.7978 122° Southeast 202 232 3,900 2,667 Climbing FAA TRACON SMA TRACON (SMA)
07:39PM 32.7919 -96.7583 52° Northeast 242 278 5,400 2,430 Climbing FAA TRACON SMA TRACON (SMA)
07:40PM 32.8214 -96.7133 353° North 278 320 7,100 2,000 Climbing FAA TRACON SMA TRACON (SMA)
07:40PM 32.8703 -96.7208 336° Northwest 293 337 8,000 1,443 Climbing FAA TRACON SMA TRACON (SMA)
07:41PM 32.9214 -96.7475 331° Northwest 292 336 9,000 1,481 Climbing FAA TRACON SMA TRACON (SMA)
07:42PM 32.9714 -96.7808 331° Northwest 297 342 10,000 1,630 Climbing FAA TRACON SMA TRACON (SMA)
07:42PM 33.0253 -96.8167 331° Northwest 323 372 11,200 2,025 Climbing FAA TRACON SMA TRACON (SMA)
07:43PM 33.0739 -96.8486 342° North 324 373 12,700 2,400 Climbing FAA TRACON SMA TRACON (SMA)
07:44PM 33.1339 -96.8725 345° North 328 377 14,400 2,475 Climbing FAA TRACON SMA TRACON (SMA)
07:44PM 33.1944 -96.8919 345° North 324 373 16,000 2,354 Climbing FAA TRACON SMA TRACON (SMA)
07:45PM 33.2481 -96.9097 345° North 324 373 17,500 2,127 Climbing FAA TRACON SMA TRACON (SMA)
07:46PM 33.3092 -96.9300 345° North 329 379 18,800 1,500 Climbing FAA TRACON SMA TRACON (SMA)
07:46PM 33.3742 -96.9511 346° North 351 404 19,500 815 Climbing FAA TRACON SMA TRACON (SMA)
07:47PM 33.4342 -96.9694 344° North 363 418 19,900 370 Climbing FAA TRACON SMA TRACON (SMA)
07:48PM 33.5042 -96.9933 345° North 377 434 20,000 75 Climbing FAA TRACON SMA TRACON (SMA)
07:48PM 33.5711 -97.0150 346° North 358 412 20,000  Level FAA TRACON SMA TRACON (SMA)
07:49PM 33.6258 -97.0319 345° North 328 377 20,000  Level FAA TRACON SMA TRACON (SMA)
07:50PM 33.6794 -97.0489 345° North 284 327 20,000 -304 Level FAA TRACON SMA TRACON (SMA)
07:50PM 33.7300 -97.0656 345° North 270 311 19,600 -750 Descending FAA TRACON SMA TRACON (SMA)
07:51PM 33.7769 -97.0808 345° North 283 326 19,000 -963 Descending FAA TRACON SMA TRACON (SMA)
07:52PM 33.8297 -97.0981 345° North 282 325 18,300 -1,185 Descending FAA TRACON SMA TRACON (SMA)
07:52PM 33.8786 -97.1136 346° North 261 300 17,400 -1,084 Descending FAA TRACON SMA TRACON (SMA)
07:53PM 33.9197 -97.1256 344° North 245 282 16,800 -912 Descending FAA TRACON SMA TRACON (SMA)
07:54PM 34.0144 -97.1578 345° North 246 283 15,500 -930 Descending Fort Worth Center
07:55PM 34.0856 -97.1803 346° North 246 283 14,600 -950 Descending Fort Worth Center
07:56PM 34.1522 -97.2003 344° North 246 283 13,600 -950 Descending Fort Worth Center
07:57PM 34.2169 -97.2225 345° North 241 277 12,700 -900 Descending Fort Worth Center
07:58PM 34.2797 -97.2425 346° North 241 277 11,800 -850 Descending Fort Worth Center
07:59PM 34.3444 -97.2625 345° North 241 277 11,000 -400 Descending Fort Worth Center
08:00PM 34.4069 -97.2825 344° North 241 277 11,000  Level Fort Worth Center
08:01PM 34.4592 -97.3003 345° North 235 270 11,000  Level Fort Worth Center
08:02PM 34.5281 -97.3228 346° North 235 270 11,000  Level Fort Worth Center
08:03PM 34.5928 -97.3428 346° North 235 270 11,000  Level Fort Worth Center
08:04PM 34.6575 -97.3631 346° North 235 270 11,000  Level Fort Worth Center
08:05PM 34.7053 -97.3781 342° North 240 276 11,000  Level Fort Worth Center
08:06PM 34.7450 -97.3933 346° North 242 278 11,000  Level Fort Worth Center
08:06PM 34.7867 -97.4058 345° North 241 277 11,000 -566 Level Fort Worth Center
08:07PM 34.8556 -97.4286 358° North 241 277 10,000 -1,150 Descending Fort Worth Center
08:08PM 34.9264 -97.4314 13° North 241 277 8,700 -1,368 Descending Fort Worth Center
08:10PM 35.0058 -97.4086 North 230 265 6,900 -1,182 Descending Fort Worth Center
08:11PM 35.0725 -97.3983 North 235 270 6,000 -519 Descending Fort Worth Center
08:11PM 35.1206 -97.3906 North 234 269 6,000  Level Fort Worth Center
08:12PM 35.1853 -97.3781 North 234 269 6,000 -451 Level Fort Worth Center
08:13PM 35.2664 -97.3678 11° North 242 278 5,000 -800 Descending Fort Worth Center
08:14PM 35.3103 -97.3575 350° North 234 269 4,400 -561 Descending Fort Worth Center
08:15PM 35.3708 -97.3703 329° Northwest 234 269 4,000 -200 Descending Fort Worth Center
08:16PM 35.4394 -97.4211 312° West 232 267 4,000 -150 Level Fort Worth Center
08:17PM 35.4856 -97.4850 276° West 238 274 3,700 -400 Descending Fort Worth Center
08:18PM 35.4917 -97.5614 214° Southwest 230 265 3,200 -600 Descending Fort Worth Center
08:19PM 35.4519 -97.5944 214° Southwest 164 189 2,500 -700 Descending Fort Worth Center